KG9NS Weather Reports


time (UTC)temp
C
wind
direction
speed
KPH
gust
KPH
rain 1hr
cm
rain 24hr
cm
rain mn
cm
humidity
%
barometer
mb
20260503185231 15 210 9.7 16.1 0.00 0.00 0.00 42 1016.5
20260503184731 15 212 8.0 22.5 0.00 0.00 0.00 42 1016.5
20260503184231 15 204 8.0 14.5 0.00 0.00 0.00 41 1016.8
20260503183731 15 219 12.9 20.9 0.00 0.00 0.00 41 1016.9
20260503183231 15 162 11.3 16.1 0.00 0.00 0.00 41 1016.8
20260503182731 15 226 19.3 24.1 0.00 0.00 0.00 40 1016.8
20260503182233 15 238 14.5 17.7 0.00 0.00 0.00 41 1016.9
20260503181731 15 202 11.3 14.5 0.00 0.00 0.00 41 1017.1
20260503181232 15 169 12.9 20.9 0.00 0.00 0.00 41 1017.0
20260503180732 15 226 12.9 17.7 0.00 0.00 0.00 42 1017.1
20260503180231 15 215 11.3 16.1 0.00 0.00 0.00 41 1017.1
20260503175731 15 172 9.7 14.5 0.00 0.00 0.00 40 1017.1
20260503175231 15 228 11.3 16.1 0.00 0.00 0.00 40 1017.3
20260503174731 15 230 14.5 17.7 0.00 0.00 0.00 42 1017.2
20260503174231 15 205 9.7 14.5 0.00 0.00 0.00 44 1017.5
20260503173731 15 220 12.9 20.9 0.00 0.00 0.00 43 1017.5
20260503173231 15 228 14.5 17.7 0.00 0.00 0.00 41 1017.6
20260503172731 15 251 9.7 20.9 0.00 0.00 0.00 42 1017.7
20260503172231 15 221 11.3 14.5 0.00 0.00 0.00 41 1017.9
20260503171732 14 191 11.3 20.9 0.00 0.00 0.00 44 1017.9
20260503171231 14 219 8.0 12.9 0.00 0.00 0.00 43 1018.0
20260503170731 14 228 11.3 19.3 0.00 0.00 0.00 43 1018.1
20260503170231 14 231 12.9 17.7 0.00 0.00 0.00 43 1018.2
20260503150731 11 225 11.3 17.7 0.00 0.00 0.00 52 1019.6
20260503150233 11 216 14.5 22.5 0.00 0.00 0.00 52 1019.5
20260503140231 10 216 14.5 17.7 0.00 0.00 0.00 56 1019.4
20260503131231 7 219 9.7 14.5 0.00 0.00 0.00 67 1019.2
20260503130731 7 217 9.7 16.1 0.00 0.00 0.00 69 1019.3
20260503130231 7 198 6.4 8.0 0.00 0.00 0.00 70 1019.3
20260503110732 1 195 1.6 3.2 0.00 0.00 0.00 91 1018.6
20260503110231 1 188 1.6 3.2 0.00 0.00 0.00 91 1018.6
20260503100231 2 187 3.2 3.2 0.00 0.00 0.00 92 1018.1
20260503090231 1 194 1.6 3.2 0.00 0.00 0.00 97 1018.1
20260503081231 0 177 1.6 3.2 0.00 0.00 0.00 96 1018.0
20260503080731 0 0 0.0 0.0 0.00 0.00 0.00 96 1018.0
20260503080232 1 93 0.0 1.6 0.00 0.00 0.00 96 1017.9
20260503072732 0 137 0.0 1.6 0.00 0.00 0.00 95 1017.9
20260503072231 0 101 0.0 1.6 0.00 0.00 0.00 95 1017.9
20260503071731 0 116 0.0 1.6 0.00 0.00 0.00 95 1018.0
20260503071231 0 89 0.0 1.6 0.00 0.00 0.00 94 1018.0
20260503070731 0 98 0.0 1.6 0.00 0.00 0.00 94 1018.0
20260503070231 0 104 0.0 1.6 0.00 0.00 0.00 94 1018.0
20260503060231 1 126 0.0 1.6 0.00 0.00 0.00 92 1018.3
20260503054731 1 121 0.0 1.6 0.00 0.00 0.00 91 1018.4
20260503054231 1 131 0.0 1.6 0.00 0.00 0.00 91 1018.4
20260503053731 1 0 0.0 0.0 0.00 0.00 0.00 91 1018.4
20260503053231 1 0 0.0 0.0 0.00 0.00 0.00 91 1018.4
20260503052731 1 0 0.0 0.0 0.00 0.00 0.00 91 1018.4
20260503052231 1 119 0.0 1.6 0.00 0.00 0.00 91 1018.4
20260503051731 1 350 0.0 0.0 0.00 0.00 0.00 92 1018.4
20260503051231 1 53 0.0 1.6 0.00 0.00 0.00 92 1018.4
20260503050731 1 56 1.6 3.2 0.00 0.00 0.00 92 1018.4
20260503050231 1 87 0.0 1.6 0.00 0.00 0.00 92 1018.4
20260503045731 1 0 0.0 0.0 0.00 0.00 0.00 92 1018.4
20260503045231 1 117 0.0 1.6 0.00 0.00 0.00 92 1018.4
20260503044731 1 0 0.0 0.0 0.00 0.00 0.00 91 1018.3
20260503044231 1 127 0.0 1.6 0.00 0.00 0.00 91 1018.3
20260503043731 1 0 0.0 0.0 0.00 0.00 0.00 91 1018.3
20260503043232 1 128 0.0 1.6 0.00 0.00 0.00 91 1018.4
20260503042731 1 0 0.0 0.0 0.00 0.00 0.00 91 1018.4
20260503042232 1 0 0.0 0.0 0.00 0.00 0.00 90 1018.4
20260503041731 2 124 0.0 1.6 0.00 0.00 0.00 90 1018.4
20260503041231 2 130 0.0 0.0 0.00 0.00 0.00 90 1018.4
20260503040731 2 93 0.0 1.6 0.00 0.00 0.00 90 1018.4
20260503040231 2 88 0.0 1.6 0.00 0.00 0.00 90 1018.4
20260503035731 2 74 0.0 1.6 0.00 0.00 0.00 90 1018.4
20260503035231 2 58 0.0 1.6 0.00 0.00 0.00 89 1018.4
20260503034731 2 104 0.0 1.6 0.00 0.00 0.00 89 1018.4
20260503034231 2 135 0.0 1.6 0.00 0.00 0.00 89 1018.4
20260503033731 2 126 0.0 0.0 0.00 0.00 0.00 88 1018.4
20260503033231 2 126 0.0 1.6 0.00 0.00 0.00 88 1018.4
20260503032731 2 103 0.0 1.6 0.00 0.00 0.00 87 1018.4
20260503032231 2 147 0.0 0.0 0.00 0.00 0.00 87 1018.4
20260503031731 2 0 0.0 0.0 0.00 0.00 0.00 86 1018.5
20260503031231 2 0 0.0 0.0 0.00 0.00 0.00 86 1018.5
20260503030731 2 0 0.0 0.0 0.00 0.00 0.00 86 1018.5
20260503030231 3 58 1.6 1.6 0.00 0.00 0.00 85 1018.4
20260503025732 3 75 0.0 1.6 0.00 0.00 0.00 84 1018.5
20260503025232 3 102 0.0 1.6 0.00 0.00 0.00 83 1018.5
20260503024731 3 0 0.0 0.0 0.00 0.00 0.00 82 1018.5
20260503024231 3 89 0.0 1.6 0.00 0.00 0.00 82 1018.5
20260503023731 3 0 0.0 0.0 0.00 0.00 0.00 81 1018.5
20260503023231 3 0 0.0 0.0 0.00 0.00 0.00 80 1018.5
20260503022732 3 64 1.6 3.2 0.00 0.00 0.00 79 1018.5
20260503022232 3 99 0.0 1.6 0.00 0.00 0.00 78 1018.5
20260503021731 3 132 1.6 3.2 0.00 0.00 0.00 77 1018.4
20260503021231 3 0 0.0 0.0 0.00 0.00 0.00 75 1018.4
20260503020731 3 0 0.0 0.0 0.00 0.00 0.00 75 1018.3
20260503020231 4 0 0.0 0.0 0.00 0.00 0.00 73 1018.3
20260503015730 4 154 0.0 0.0 0.00 0.00 0.00 72 1018.3
20260503015231 5 0 0.0 0.0 0.00 0.00 0.00 71 1018.3
20260503014732 5 197 1.6 3.2 0.00 0.00 0.00 70 1018.3
20260503014231 5 167 0.0 3.2 0.00 0.00 0.00 67 1018.2
20260503013731 5 134 0.0 0.0 0.00 0.00 0.00 66 1018.2
20260503013231 6 0 0.0 0.0 0.00 0.00 0.00 66 1018.2
20260503012731 6 101 0.0 0.0 0.00 0.00 0.00 65 1018.1
20260503012231 6 0 0.0 0.0 0.00 0.00 0.00 63 1018.1
20260503011732 6 82 0.0 0.0 0.00 0.00 0.00 62 1018.0
20260503011230 6 49 0.0 1.6 0.00 0.00 0.00 61 1018.0
20260503010731 7 0 0.0 0.0 0.00 0.00 0.00 60 1017.9
20260503010231 7 60 0.0 1.6 0.00 0.00 0.00 60 1017.9
20260503005731 7 19 0.0 3.2 0.00 0.00 0.00 59 1017.9
20260503005231 7 57 0.0 3.2 0.00 0.00 0.00 57 1017.8
20260503004731 7 22 3.2 4.8 0.00 0.00 0.00 56 1017.8
20260503004231 8 14 3.2 6.4 0.00 0.00 0.00 56 1017.7
20260503003731 8 14 3.2 6.4 0.00 0.00 0.00 56 1017.8
20260503003231 8 17 1.6 3.2 0.00 0.00 0.00 56 1017.8
20260503002731 8 24 3.2 4.8 0.00 0.00 0.00 56 1017.8
20260503002232 8 328 3.2 6.4 0.00 0.00 0.00 55 1017.8
20260503001731 8 33 1.6 4.8 0.00 0.00 0.00 55 1017.7
20260503001231 8 13 4.8 9.7 0.00 0.00 0.00 54 1017.6
20260503000731 8 2 3.2 8.0 0.00 0.00 0.00 54 1017.6
20260503000233 8 340 3.2 8.0 0.00 0.00 0.00 53 1017.5
20260502235732 8 10 4.8 11.3 0.00 0.00 0.00 52 1017.5
20260502235232 9 2 6.4 11.3 0.00 0.00 0.00 52 1017.5
20260502234732 9 348 1.6 8.0 0.00 0.00 0.00 52 1017.5
20260502234231 9 15 4.8 8.0 0.00 0.00 0.00 52 1017.3
20260502233731 9 9 3.2 6.4 0.00 0.00 0.00 51 1017.3
20260502233231 10 26 3.2 6.4 0.00 0.00 0.00 51 1017.3
20260502232731 9 357 6.4 8.0 0.00 0.00 0.00 50 1017.2
20260502232231 9 14 8.0 11.3 0.00 0.00 0.00 50 1017.2
20260502231732 10 22 3.2 4.8 0.00 0.00 0.00 51 1017.3
20260502231231 10 358 1.6 3.2 0.00 0.00 0.00 50 1017.3
20260502230734 10 1 3.2 9.7 0.00 0.00 0.00 50 1017.2
20260502230231 10 355 6.4 11.3 0.00 0.00 0.00 50 1017.2
20260502225731 10 17 1.6 4.8 0.00 0.00 0.00 50 1017.2
20260502225231 10 348 3.2 4.8 0.00 0.00 0.00 49 1017.2
20260502224731 10 348 4.8 6.4 0.00 0.00 0.00 49 1017.2
20260502224231 10 7 3.2 6.4 0.00 0.00 0.00 48 1017.1
20260502223731 10 352 4.8 6.4 0.00 0.00 0.00 48 1017.0
20260502223232 10 19 4.8 6.4 0.00 0.00 0.00 48 1017.0
20260502222731 10 21 3.2 6.4 0.00 0.00 0.00 48 1017.1
20260502222231 10 328 3.2 6.4 0.00 0.00 0.00 48 1017.0
20260502221731 10 355 6.4 11.3 0.00 0.00 0.00 48 1017.0
20260502221231 10 10 6.4 12.9 0.00 0.00 0.00 48 1016.9
20260502220731 10 8 3.2 6.4 0.00 0.00 0.00 48 1017.0
20260502220231 11 355 8.0 11.3 0.00 0.00 0.00 47 1016.9
20260502215731 11 243 3.2 8.0 0.00 0.00 0.00 47 1016.9
20260502215232 11 7 3.2 9.7 0.00 0.00 0.00 47 1016.9
20260502214731 11 231 1.6 3.2 0.00 0.00 0.00 46 1016.9
20260502214231 10 193 4.8 6.4 0.00 0.00 0.00 47 1016.8
20260502213731 11 225 4.8 8.0 0.00 0.00 0.00 46 1016.8
20260502213231 11 349 3.2 6.4 0.00 0.00 0.00 46 1016.8
20260502212731 11 349 3.2 9.7 0.00 0.00 0.00 46 1016.8
20260502212231 11 356 4.8 9.7 0.00 0.00 0.00 47 1016.7
20260502211731 11 348 6.4 8.0 0.00 0.00 0.00 46 1016.8
20260502211231 10 359 3.2 6.4 0.00 0.00 0.00 46 1016.8
20260502210731 11 2 6.4 12.9 0.00 0.00 0.00 47 1016.8
20260502210231 11 6 4.8 11.3 0.00 0.00 0.00 46 1016.6
20260502205731 10 359 6.4 9.7 0.00 0.00 0.00 47 1016.6
20260502205231 10 344 4.8 9.7 0.00 0.00 0.00 47 1016.6
20260502204732 11 2 9.7 14.5 0.00 0.00 0.00 46 1016.7
20260502204231 11 1 4.8 8.0 0.00 0.00 0.00 45 1016.7
20260502203731 11 11 3.2 6.4 0.00 0.00 0.00 46 1016.7
20260502203231 11 358 4.8 8.0 0.00 0.00 0.00 46 1016.8
20260502202731 12 5 8.0 12.9 0.00 0.00 0.00 46 1016.7
20260502202232 11 217 4.8 14.5 0.00 0.00 0.00 47 1016.8
20260502201731 11 11 6.4 16.1 0.00 0.00 0.00 47 1016.7
20260502201231 11 22 3.2 6.4 0.00 0.00 0.00 46 1016.8
20260502200731 11 5 4.8 8.0 0.00 0.00 0.00 48 1016.8
20260502200231 10 6 3.2 8.0 0.00 0.00 0.00 47 1016.9
20260502195731 11 354 6.4 9.7 0.00 0.00 0.00 46 1017.0
20260502195231 11 20 3.2 9.7 0.00 0.00 0.00 46 1017.1
20260502194731 11 59 1.6 6.4 0.00 0.00 0.00 45 1017.0
20260502194231 11 39 3.2 8.0 0.00 0.00 0.00 46 1017.1
20260502193731 11 356 6.4 9.7 0.00 0.00 0.00 48 1017.1
20260502193231 11 0 6.4 9.7 0.00 0.00 0.00 47 1017.1
20260502192732 11 1 4.8 6.4 0.00 0.00 0.00 46 1017.2
20260502192231 11 263 8.0 17.7 0.00 0.00 0.00 47 1017.2
20260502191731 11 227 8.0 16.1 0.00 0.00 0.00 48 1017.2
20260502191231 11 15 6.4 11.3 0.00 0.00 0.00 46 1017.3
20260502190732 12 42 3.2 4.8 0.00 0.00 0.00 46 1017.3
20260502190231 11 249 3.2 9.7 0.00 0.00 0.00 50 1017.5
20260502185739 11 355 3.2 8.0 0.00 0.00 0.00 48 1017.5